FW6260 Weather Reports


Display with metric or nautical units.
time (UTC)temp
F
wind
direction
speed
MPH
gust
MPH
rain 1hr
in
rain 24hr
in
rain mn
in
humidity
%
barometer
mb
20260508213110 46 140 0.0 1.0 0.00 0.01 0.01 91
20260508210040 47 159 0.0 1.0 0.00 0.01 0.01 90
20260508203111 48 136 0.0 1.0 0.00 0.01 0.01 88
20260508200046 50 144 0.0 1.0 0.00 0.01 0.01 85
20260508193112 52 131 0.0 1.0 0.00 0.01 0.01 79
20260508190042 55 163 0.0 1.0 0.00 0.01 0.01 71
20260508183113 58 160 0.0 1.0 0.00 0.01 0.01 66
20260508180042 60 148 1.0 3.0 0.00 0.01 0.01 60
20260508170043 64 178 1.0 4.0 0.00 0.01 0.01 51
20260508163114 63 183 1.0 4.0 0.00 0.01 0.01 53
20260508160044 63 131 1.0 4.0 0.00 0.01 0.01 54
20260508153116 64 106 1.0 3.0 0.00 0.01 0.01 51
20260508150045 64 150 1.0 3.0 0.00 0.01 0.01 50
20260508143116 66 130 1.0 6.0 0.00 0.01 0.01 48
20260508140046 65 132 1.0 6.0 0.00 0.01 0.01 49
20260508133036 64 155 1.0 7.0 0.00 0.01 0.01 53
20260508130047 64 166 1.0 6.0 0.00 0.01 0.01 55
20260508123017 61 131 1.0 6.0 0.00 0.02 0.01 58
20260508120048 60 219 1.0 4.0 0.00 0.02 0.01 61
20260508113018 61 148 1.0 3.0 0.00 0.03 0.01 61
20260508110048 61 131 1.0 4.0 0.00 0.04 0.01 62
20260508103019 61 122 1.0 6.0 0.00 0.04 0.01 61
20260508100050 58 175 1.0 4.0 0.00 0.04 0.01 63
20260508093020 59 145 1.0 4.0 0.00 0.04 0.01 67
20260508090050 56 125 1.0 3.0 0.00 0.04 0.01 76
20260508083021 54 140 0.0 4.0 0.00 0.05 0.01 81
20260508080051 48 123 1.0 3.0 0.00 0.05 0.01 96
20260508073041 46 161 1.0 3.0 0.00 0.05 0.01 99
20260508070052 46 190 1.0 3.0 0.00 0.05 0.01 99
20260508063022 45 163 0.0 2.0 0.00 0.05 0.01 99
20260508060113 44 0.0 0.0 0.00 0.05 0.01 99
20260508053023 42 118 0.0 1.0 0.00 0.05 0.01 99
20260508050054 41 127 0.0 1.0 0.00 0.05 0.01 99
20260508043024 40 133 0.0 1.0 0.00 0.05 0.01 99
20260508040114 40 136 0.0 1.0 0.00 0.05 0.01 99
20260508033025 39 130 0.0 2.0 0.00 0.05 0.01 99
20260508030055 39 141 0.0 2.0 0.00 0.05 0.01 99
20260508023026 39 151 0.0 1.0 0.00 0.05 0.01 99
20260508020116 39 138 0.0 2.0 0.01 0.05 0.01 99
20260508013027 39 133 0.0 1.0 0.01 0.05 0.01 99
20260508010058 39 0.0 1.0 0.00 0.04 0.00 99
20260508003028 40 0.0 1.0 0.00 0.04 0.00 99
20260508000059 41 140 0.0 2.0 0.00 0.04 0.00 99
20260507233029 42 145 0.0 2.0 0.00 0.04 0.00 99
20260507230059 43 137 0.0 3.0 0.00 0.04 0.00 98
20260507223029 44 147 0.0 3.0 0.00 0.04 0.00 97
20260507220120 45 143 0.0 2.0 0.00 0.04 0.00 97